Tracking 19212 objects as of 16-Jul-2018
HD Live streaming from Space Station
objects crossing your sky now

COSMOS 642

Track COSMOS 642 now!
10-day predictions
COSMOS 642 is classified as:


NORAD ID: 7266
Int'l Code: 1974-024B
Perigee: 1,325.4 km
Apogee: 1,487.2 km
Inclination: 74.0 °
Period: 113.8 minutes
Semi major axis: 7777 km
RCS: 0.7579 m2 (medium)
Launch date: April 23, 1974
Source: Commonwealth of Independent States (former USSR) (CIS)
Launch site: PLESETSK MISSILE AND SPACE COMPLEX (PKMTR)
aabbcc
Your satellite tracking list
Your tracking list is empty




NASA's NSSDC Master Catalog

Two Line Element Set (TLE):
1 07266U 74024B   18196.64392146  .00000006  00000-0  12320-3 0  9995
2 07266  74.0182 274.5264 0104040 322.8604 188.9445 12.65785173 43819
Source of the keplerian elements: AFSPC